Location: Maccacari
(45.1333°N, 11.1333°E)
Time: 07:32:11
(UTC+00:00)

MOS 1 Rocket - Pass Details

Date: 18 September 2020
Orbit: 614 x 831 km, 97.4° (Epoch: 29 October)

Event Time Altitude Azimuth Distance (km) Brightness Sun altitude
Rises 18:57:37 0° 7° (N) 3,028 6.8 -17.6°
Reaches altitude 10° 18:59:57 10° 1° (N) 2,080 6.0 -18.0°
Maximum altitude 19:04:16 47° 289° (WNW) 847 4.2 -18.7°
Drops below altitude 10° 19:08:24 10° 215° (SW) 1,987 5.8 -19.4°
Sets 19:10:35 0° 210° (SSW) 2,877 6.6 -19.7°
